Regional Weather Roundup
Issued by NWS

Home | Current Version | Previous Version | Graphics & Text | Print | Product List | Glossary Off
Versions: 1 2 3 4 5 6 7 8 9 10 11 12 13 14 15 16 17 18 19 20 21 22 23 24 25 26 27 28 29 30 31 32 33 34 35 36 37 38 39 40 41 42 43 44 45 46 47 48 49 50

000
ASUS43 KMKX 091800
RWRWI

WISCONSIN REGIONAL WEATHER ROUNDUP
NATIONAL WEATHER SERVICE MILWAUKEE/SULLIVAN WI
1200 PM CST TUE FEB 09 2016

NOTE: "FAIR" INDICATES FEW OR NO CLOUDS BELOW 12,000 FEET WITH NO
SIGNIFICANT WEATHER AND/OR OBSTRUCTIONS TO VISIBILITY.

WIZ001-002-006>008-014>016-023>028-091900-
NORTHWEST WISCONSIN

CITY           SKY/WX    TMP DP  RH WIND       PRES   REMARKS
SUPERIOR ARPT  SUNNY      9  -3  58 N12       30.11F WCI  -5
ASHLAND        LGT SNOW  10   3  73 NW10      30.05R WCI  -4
6HR MIN TEMP:   6; 6HR MAX TEMP:  10; 6HR PCP: TRACE;

HAYWARD        CLOUDY     8   0  69 N10       30.01S WCI  -6
6HR MIN TEMP:   2; 6HR MAX TEMP:   9; 6HR PCP: TRACE;

SIREN          SUNNY      9  -3  58 NW16G22   30.08F WCI  -8
CUMBERLAND     SUNNY      7  -4  61 NW15      30.02R WCI -11
RICE LAKE      SUNNY      9  -3  57 NW9       30.04S WCI  -4
CHETEK         SUNNY      9  -4  57 NW6       30.03R WCI  -1
LADYSMITH      CLOUDY    10   1  67 NW16      29.99R WCI  -8
EAU CLAIRE     NOT AVBL
MENOMONIE      SUNNY     12  -4  48 NW16      30.05S WCI  -5
NEW RICHMOND   SUNNY     10  -1  62 NW15G21   30.08S WCI  -7
OSCEOLA        SUNNY     10  -1  60 NW13G23   30.13S WCI  -5
$$

WIZ003>005-009-010-017-018-091900-
NORTH CENTRAL WISCONSIN

CITY           SKY/WX    TMP DP  RH WIND       PRES   REMARKS
MANITOWISH WTR CLOUDY    10   4  74 N16G28    29.86R HAZE    WCI  -7
ARBOR VITAE    CLOUDY    13   6  73 N18G26    29.84S HAZE    WCI  -4
WOODRUFF       CLOUDY    13   6  73 N18G26    29.84S HAZE    WCI  -4
RHINELANDER    CLOUDY    13   3  64 N9G25     29.81F WCI   1
6HR MIN TEMP:  10; 6HR MAX TEMP:  13; 6HR PCP:  0.01;

EAGLE RIVER    LGT SNOW  12   4  71 N20G28    29.81S VSB 1   WCI  -6
LAND O LAKES   LGT SNOW  11   4  73 N18G26    29.82S WCI  -7
PHILLIPS       CLOUDY     9   2  73 N13G22    29.90R WCI  -7
TOMAHAWK       CLOUDY    14   4  64 N14G22    29.85R HAZE    WCI  -1
MEDFORD        CLOUDY    11   3  68 N17G28    29.87R HAZE    WCI  -6
MERRILL        CLOUDY    15   5  65 N14G22    29.85R WCI   1
$$

WIZ029-030-035-036-043>047-091900-
CENTRAL WISCONSIN

CITY           SKY/WX    TMP DP  RH WIND       PRES   REMARKS
WAUSAU         CLOUDY    17   5  59 N15G26    29.83S WCI   2
6HR MIN TEMP:  10; 6HR MAX TEMP:  17; 6HR PCP: TRACE;

MOSINEE        CLOUDY    12   9  85 NW18G24   29.85S FOG     WCI  -5
MARSHFIELD     CLOUDY    13   1  59 NW24      29.87S WCI  -7
6HR MIN TEMP:   6; 6HR MAX TEMP:  13; 6HR PCP: TRACE;

STEVENS POINT  LGT SNOW  11   4  73 NW10G16   29.86S WCI  -3
WAUPACA        CLOUDY    20   9  62 NW10      29.85F HAZE    WCI   9
WAUTOMA        NOT AVBL
WISC RAPIDS    CLOUDY    13   2  61 N15G26    29.89F WCI  -3
6HR MIN TEMP:   7; 6HR MAX TEMP:  13; 6HR PCP: TRACE;

CAMP DOUGLAS   NOT AVBL
$$

WIZ011>013-019>022-031-037>040-048>050-091900-
NORTHEAST WISCONSIN

CITY           SKY/WX    TMP DP  RH WIND       PRES   REMARKS
ANTIGO         CLOUDY    13   5  69 N18       29.79F WCI  -4
SHAWANO        CLOUDY    19   7  59 NW12G17   29.83F WCI   7
OCONTO         CLOUDY    17   5  60 NW13G24   29.81F WCI   3
STURGEON BAY   CLOUDY    18   7  62 N20G25    29.79F WCI   1
6HR MIN TEMP:  14; 6HR MAX TEMP:  18;

GREEN BAY      CLOUDY    18   6  59 NW16      29.81F WCI   3
6HR MIN TEMP:  13; 6HR MAX TEMP:  18; 6HR PCP:  0.01;

MANITOWOC      NOT AVBL
APPLETON       PTSUNNY   18   5  57 NW12G21   29.80F WCI   5
CLINTONVILLE   CLOUDY    18   9  68 N14       29.84S HAZE    WCI   4
OSHKOSH        CLOUDY    16   8  71 NW14G22   29.82F HAZE    WCI   2
6HR MIN TEMP:  10; 6HR MAX TEMP:  16; 6HR PCP: TRACE;

$$

WIZ032>034-041-042-053>061-091900-
SOUTHWEST WISCONSIN

CITY           SKY/WX    TMP DP  RH WIND       PRES   REMARKS
LA CROSSE      SUNNY     11  -1  58 NW15      30.03S WCI  -5
6HR MIN TEMP:   6; 6HR MAX TEMP:  11;

SPARTA         MOSUNNY   12   2  65 NW15G23   29.99R WCI  -4
VIROQUA        SUNNY     10   1  67 NW16      29.94S WCI  -7
BOSCOBEL       MIX PCPN  15   2  56 NW15G24   29.99S WCI   0
6HR MIN TEMP:  10; 6HR MAX TEMP:  16; 6HR PCP: TRACE;

PRAIRIE DU CHI SUNNY     13   1  56 NW14G24   30.01S WCI  -2
PLATTEVILLE    SUNNY     13   5  70 NW16      29.93S WCI  -4
$$

WIZ056-057-062-063-064-067-068-091900-
SOUTH CENTRAL WISCONSIN

CITY           SKY/WX    TMP DP  RH WIND       PRES   REMARKS
REEDSBURG      PTSUNNY   12   2  66 NW13G23   29.91F WCI  -3
BARABOO/DELLS  CLOUDY    13   2  62 NW16G22   29.89F WCI  -3
LONE ROCK      MIX PCPN  15   3  59 NW15G22   29.95S WCI   0
6HR MIN TEMP:   9; 6HR MAX TEMP:  15; 6HR PCP: TRACE;

MINERAL POINT  SUNNY     16   5  62 NW15G22   29.90S WCI   1
MADISON        FLURRIES  13   3  64 NW16G23   29.88S WCI  -3
6HR MIN TEMP:   9; 6HR MAX TEMP:  14; 6HR PCP: TRACE;

MIDDLETON      CLOUDY    15   6  66 NW16G25   29.88F WCI   0
WATERTOWN      PTSUNNY   15   7  70 NW15      29.85S WCI  -1
MONROE         PTSUNNY   16   7  67 NW12G23   29.86F WCI   3
JANESVILLE     PTSUNNY   18   7  62 NW17G24   29.87S WCI   2
$$

WIZ051-052-058>065-066-070>072-091900-
SOUTHEAST WISCONSIN

CITY           SKY/WX    TMP DP  RH WIND       PRES   REMARKS
MILWAUKEE      PTSUNNY   18   6  59 NW15G21   29.82S WCI   4
6HR MIN TEMP:  13; 6HR MAX TEMP:  18; 6HR PCP: TRACE;

WAUKESHA       CLOUDY    14   7  73 NW17G29   29.83S WCI  -3
MILWAUKEE/TIMM PTSUNNY   16   5  62 NW17      29.83S WCI   0
RACINE         CLOUDY    18   6  59 NW13G21   29.83S WCI   5
6HR MIN TEMP:  13; 6HR MAX TEMP:  18; 6HR PCP: TRACE;

BURLINGTON     PTSUNNY   14   5  67 NW17      29.84S WCI  -2
KENOSHA        MOSUNNY   17   7  64 NW14      29.82S WCI   3
6HR MIN TEMP:  13; 6HR MAX TEMP:  18; 6HR PCP: TRACE;

FOND DU LAC    MIX PCPN  16   7  67 NW18      29.83S WCI   0
6HR MIN TEMP:  11; 6HR MAX TEMP:  16; 6HR PCP: TRACE;

SHEBOYGAN      CLOUDY    17   7  64 NW17G24   29.80S WCI   1
6HR MIN TEMP:  12; 6HR MAX TEMP:  17; 6HR PCP: TRACE;

WEST BEND      CLOUDY    18   7  62 NW14G25   29.81S WCI   4
JUNEAU         PTSUNNY   13   5  70 NW14G21   29.85S WCI  -2
$$

LSZ147-162-091900-
LAKE SUPERIOR

STATION/POSITION TIME  TEMP    WIND        PRES    WAVE
                       AIR SEA DIR/SP/G            HT/PER
                 (UTC) (F)     (DEG/KT/KT) (MB)    (FT/S)
DEVILS ISLAND    1700    8     340/ 19/ 24 1019.4R
SAXON HARBOR     1740   12                 1016.6R
$$

LMZ867-665-643>646-091900-
LAKE MICHIGAN

STATION/POSITION TIME  TEMP    WIND        PRES    WAVE
                       AIR SEA DIR/SP/G            HT/PER
                 (UTC) (F)     (DEG/KT/KT) (MB)    (FT/S)
CHAMBERS ISLAND  1700   18     310/ 17/ 24 1008.5S
ALGOMA LAKESHORE 1711          320/ 18/ 24   N/A
KEWAUNEE LAKESHO 1700   17     330/ 13/ 20 1008.3R
SHEBOYGAN LAKESH 1700   16     320/ 17/ 20 1010.6R
PORT WASHINGTON  1740   17     300/ 11/ 19 1010.8R
MILWAUKEE LAKESH 1710   17     310/ 13/ 18   N/A
KENOSHA   LAKESH 1700   17     330/ 13/ 20 1010.2R
$$

TC  - TEMPERATURE IN CELSIUS
VSB - VISIBILITY IN STATUTE MILES
WCI - WIND CHILL INDEX
HX  - HEAT INDEX




USA.gov is the U.S. government's official web portal to all federal, state and local government web resources and services.